Location: El Atico
(3.0014°N, 75.4378°W)
Time: 11:54:44
(UTC+00:00)

Cosmos 1655 Rocket - Pass Details

Date: 09 December 2025
Orbit: 970 x 1006 km, 83.0° (Epoch: 25 January)

Event Time Altitude Azimuth Distance (km) Brightness Sun altitude
Rises 23:20:07 0° 5° (N) 3,647 6.7 -7.1°
Reaches altitude 10° 23:22:40 10° 10° (N) 2,702 6.0 -7.7°
Maximum altitude 23:28:41 55° 87° (E) 1,152 4.1 -9.1°
Drops below altitude 10° 23:34:44 10° 163° (SSE) 2,717 6.4 -10.4°
Sets 23:37:18 0° 168° (SSE) 3,670 7.2 -11.0°
